GW5874 Weather Reports


time (UTC)temp
C
wind
direction
speed
KPH
gust
KPH
rain 1hr
cm
rain 24hr
cm
rain mn
cm
humidity
%
barometer
mb
20260509151739 21 216 0.0 0.0 0.00 0.00 0.00 75 1011.7
20260509151235 21 226 0.0 1.6 0.00 0.00 0.00 73 1011.7
20260509150734 21 248 4.8 6.4 0.00 0.00 0.00 74 1011.8
20260509150232 20 202 3.2 4.8 0.00 0.00 0.00 74 1011.6
20260509145728 20 197 1.6 1.6 0.00 0.00 0.00 77 1011.6
20260509145223 20 249 8.0 8.0 0.00 0.00 0.00 76 1011.6
20260509144719 19 202 0.0 0.0 0.00 0.00 0.00 77 1011.7
20260509144216 18 251 4.8 6.4 0.00 0.00 0.00 77 1011.8
20260509143714 18 230 3.2 4.8 0.00 0.00 0.00 79 1011.7
20260509143211 18 223 3.2 4.8 0.00 0.00 0.00 77 1011.8
20260509142706 19 217 4.8 6.4 0.00 0.00 0.00 75 1011.8
20260509142203 18 230 3.2 4.8 0.00 0.00 0.00 76 1011.6
20260509141658 18 340 0.0 1.6 0.00 0.00 0.00 81 1011.8
20260509141156 17 218 0.0 1.6 0.00 0.00 0.00 82 1011.8
20260509140652 17 205 3.2 4.8 0.00 0.00 0.00 83 1011.7
20260509140150 17 246 0.0 1.6 0.00 0.00 0.00 82 1011.7
20260509135647 16 235 1.6 1.6 0.00 0.00 0.00 84 1011.6
20260509135146 16 195 1.6 4.8 0.00 0.00 0.00 87 1011.6
20260509134641 15 297 0.0 0.0 0.00 0.00 0.00 90 1011.5
20260509134139 15 341 1.6 1.6 0.00 0.00 0.00 91 1011.5
20260509133636 15 309 0.0 0.0 0.00 0.00 0.00 97 1011.5
20260509133133 14 164 1.6 1.6 0.00 0.00 0.00 99 1011.4
20260509132631 13 123 0.0 0.0 0.00 0.00 0.00 99 1011.3
20260509132130 13 340 0.0 0.0 0.00 0.00 0.00 99 1011.4
20260509131625 13 317 0.0 0.0 0.00 0.00 0.00 99 1011.3
20260509131123 12 165 0.0 0.0 0.00 0.00 0.00 99 1011.5
20260509130618 11 249 0.0 0.0 0.00 0.00 0.00 99 1011.4
20260509130115 10 327 1.6 1.6 0.00 0.00 0.00 99 1011.4
20260509125611 11 336 1.6 1.6 0.00 0.00 0.00 99 1011.5
20260509125108 10 204 0.0 1.6 0.00 0.00 0.00 99 1011.5
20260509124605 10 193 1.6 1.6 0.00 0.00 0.00 99 1011.3
20260509124102 10 254 0.0 0.0 0.00 0.00 0.00 99 1011.0
20260509123600 10 255 0.0 0.0 0.00 0.00 0.00 99 1011.2
20260509123056 9 254 0.0 0.0 0.00 0.00 0.00 99 1011.2
20260509122552 8 254 0.0 0.0 0.00 0.00 0.00 99 1011.2
20260509122050 8 289 0.0 0.0 0.00 0.00 0.00 99 1011.1
20260509121546 8 290 0.0 0.0 0.00 0.00 0.00 99 1011.0
20260509121048 8 290 0.0 0.0 0.00 0.00 0.00 99 1010.8
20260509120542 7 251 0.0 0.0 0.00 0.00 0.00 99 1011.1
20260509120040 7 273 0.0 0.0 0.00 0.00 0.00 99 1010.9
20260509115536 7 271 0.0 0.0 0.00 0.00 0.00 99 1010.9
20260509115034 7 293 0.0 0.0 0.00 0.00 0.00 99 1010.8
20260509114532 7 276 0.0 0.0 0.00 0.00 0.00 99 1010.8
20260509114031 7 227 0.0 0.0 0.00 0.00 0.00 99 1010.7
20260509113529 7 226 0.0 0.0 0.00 0.00 0.00 99 1010.4
20260509113026 7 226 0.0 0.0 0.00 0.00 0.00 99 1010.4
20260509112522 7 226 0.0 0.0 0.00 0.00 0.00 99 1010.4
20260509112019 7 266 0.0 0.0 0.00 0.00 0.00 99 1010.5
20260509111517 7 262 0.0 0.0 0.00 0.00 0.00 99 1010.7
20260509111014 7 262 0.0 0.0 0.00 0.00 0.00 99 1010.5
20260509110510 8 262 0.0 0.0 0.00 0.00 0.00 99 1010.4
20260509110007 8 262 0.0 0.0 0.00 0.00 0.00 99 1010.4
20260509105506 7 260 0.0 0.0 0.00 0.00 0.00 99 1010.6
20260509105003 7 260 0.0 0.0 0.00 0.00 0.00 99 1010.4
20260509104459 8 260 0.0 0.0 0.00 0.00 0.00 99 1010.7
20260509103957 8 260 0.0 0.0 0.00 0.00 0.00 99 1010.4
20260509103454 8 260 0.0 0.0 0.00 0.00 0.00 99 1010.4
20260509102952 8 260 0.0 0.0 0.00 0.00 0.00 98 1010.4
20260509102449 8 261 0.0 0.0 0.00 0.00 0.00 98 1010.5
20260509101946 8 261 0.0 0.0 0.00 0.00 0.00 98 1010.2
20260509101442 8 261 0.0 0.0 0.00 0.00 0.00 98 1010.5
20260509100939 8 261 0.0 0.0 0.00 0.00 0.00 98 1010.4
20260509100437 8 260 0.0 0.0 0.00 0.00 0.00 98 1010.4
20260509095933 8 260 0.0 0.0 0.00 0.00 0.00 98 1010.6
20260509095430 8 260 0.0 0.0 0.00 0.00 0.00 98 1010.5
20260509094927 8 260 0.0 0.0 0.00 0.00 0.00 98 1010.6
20260509094424 8 260 0.0 0.0 0.00 0.00 0.00 98 1010.6
20260509093922 8 286 0.0 0.0 0.00 0.00 0.00 98 1010.6
20260509093419 8 286 0.0 0.0 0.00 0.00 0.00 98 1010.5
20260509092917 8 286 0.0 0.0 0.00 0.00 0.00 98 1010.4
20260509092414 8 286 0.0 0.0 0.00 0.00 0.00 98 1010.6
20260509091913 8 286 0.0 0.0 0.00 0.00 0.00 98 1010.5
20260509091409 9 286 0.0 0.0 0.00 0.00 0.00 98 1010.7
20260509090907 9 286 0.0 0.0 0.00 0.00 0.00 98 1010.4
20260509090403 8 286 0.0 0.0 0.00 0.00 0.00 98 1010.6
20260509085901 9 286 0.0 0.0 0.00 0.00 0.00 98 1010.6
20260509085358 9 286 0.0 0.0 0.00 0.00 0.00 98 1010.7
20260509084854 10 286 0.0 0.0 0.00 0.00 0.00 98 1010.9
20260509084351 10 286 0.0 0.0 0.00 0.00 0.00 98 1010.9
20260509083849 10 286 0.0 0.0 0.00 0.00 0.00 98 1010.9
20260509083345 10 285 0.0 0.0 0.00 0.00 0.00 98 1010.9
20260509082842 10 284 0.0 0.0 0.00 0.00 0.00 98 1010.8
20260509082339 10 284 0.0 0.0 0.00 0.00 0.00 98 1010.9
20260509081837 10 295 0.0 0.0 0.00 0.00 0.00 98 1010.8
20260509081333 10 298 0.0 0.0 0.00 0.00 0.00 97 1010.6
20260509080831 10 293 0.0 0.0 0.00 0.00 0.00 97 1010.6
20260509080329 10 283 0.0 0.0 0.00 0.00 0.00 97 1010.9
20260509075827 10 283 0.0 0.0 0.00 0.00 0.00 97 1011.0
20260509075324 10 284 0.0 0.0 0.00 0.00 0.00 97 1010.7
20260509074821 10 300 0.0 0.0 0.00 0.00 0.00 97 1010.4
20260509074319 10 300 0.0 0.0 0.00 0.00 0.00 97 1010.4
20260509073815 10 300 0.0 0.0 0.00 0.00 0.00 97 1010.5
20260509073311 10 300 0.0 0.0 0.00 0.00 0.00 97 1010.5
20260509072808 10 300 0.0 0.0 0.00 0.00 0.00 97 1010.6
20260509072306 10 300 0.0 0.0 0.00 0.00 0.00 97 1010.7
20260509071801 10 301 0.0 0.0 0.00 0.00 0.00 97 1010.5
20260509071258 10 301 0.0 0.0 0.00 0.00 0.00 97 1010.7
20260509070755 10 282 0.0 0.0 0.00 0.00 0.00 96 1010.6
20260509070251 10 282 0.0 0.0 0.00 0.00 0.00 96 1010.8
20260509065748 10 282 0.0 0.0 0.00 0.00 0.00 96 1010.9
20260509065244 10 282 0.0 0.0 0.00 0.00 0.00 96 1010.6
20260509064741 10 282 0.0 0.0 0.00 0.00 0.00 96 1010.8
20260509064238 10 282 0.0 0.0 0.00 0.00 0.00 96 1010.7
20260509063736 11 282 0.0 0.0 0.00 0.00 0.00 96 1010.9
20260509063232 11 282 0.0 0.0 0.00 0.00 0.00 96 1010.9
20260509062729 11 282 0.0 0.0 0.00 0.00 0.00 95 1010.8
20260509062226 11 282 0.0 0.0 0.00 0.00 0.00 95 1010.9
20260509061723 11 282 0.0 0.0 0.00 0.00 0.00 95 1010.9
20260509061221 11 282 0.0 0.0 0.00 0.00 0.00 95 1010.9
20260509060718 11 282 0.0 0.0 0.00 0.00 0.00 94 1011.0
20260509060214 11 282 0.0 0.0 0.00 0.00 0.00 94 1010.8
20260509055710 11 283 0.0 0.0 0.00 0.00 0.00 94 1011.0
20260509055206 11 282 0.0 0.0 0.00 0.00 0.00 94 1011.1
20260509054703 11 281 0.0 0.0 0.00 0.00 0.00 93 1010.9
20260509054200 12 310 0.0 0.0 0.00 0.00 0.00 93 1011.1
20260509053659 12 311 0.0 0.0 0.00 0.00 0.00 93 1011.0
20260509053155 12 313 1.6 1.6 0.00 0.00 0.00 93 1010.9
20260509052653 12 314 1.6 1.6 0.00 0.00 0.00 93 1010.9
20260509052150 12 292 1.6 1.6 0.00 0.00 0.00 93 1011.0
20260509051648 12 296 0.0 1.6 0.00 0.00 0.00 93 1010.9
20260509051145 12 296 1.6 1.6 0.00 0.00 0.00 92 1011.1
20260509050642 12 290 0.0 0.0 0.00 0.00 0.00 92 1010.9
20260509050138 12 291 0.0 0.0 0.00 0.00 0.00 92 1010.9
20260509045636 12 299 0.0 0.0 0.00 0.00 0.00 93 1010.8
20260509045133 12 280 0.0 0.0 0.00 0.00 0.00 93 1010.7
20260509044630 12 318 0.0 0.0 0.00 0.00 0.00 92 1010.9
20260509044127 12 319 1.6 1.6 0.00 0.00 0.00 92 1010.9
20260509043624 12 318 0.0 0.0 0.00 0.00 0.00 91 1010.9
20260509043119 12 318 0.0 0.0 0.00 0.00 0.00 90 1010.9
20260509042616 12 318 0.0 0.0 0.00 0.00 0.00 90 1010.9
20260509042112 12 318 0.0 0.0 0.00 0.00 0.00 89 1011.0
20260509041609 12 318 0.0 0.0 0.00 0.00 0.00 88 1011.0
20260509041106 13 318 0.0 0.0 0.00 0.00 0.00 88 1010.8
20260509040605 13 318 0.0 0.0 0.00 0.00 0.00 87 1011.0
20260509040101 13 318 0.0 0.0 0.00 0.00 0.00 86 1011.0
20260509035558 13 319 0.0 0.0 0.00 0.00 0.00 85 1010.7
20260509035054 13 319 0.0 0.0 0.00 0.00 0.00 84 1010.7
20260509034553 13 319 0.0 0.0 0.00 0.00 0.00 83 1010.9
20260509034049 13 299 0.0 1.6 0.00 0.00 0.00 84 1010.7
20260509033547 13 298 0.0 0.0 0.00 0.00 0.00 84 1010.6
20260509033043 14 299 1.6 1.6 0.00 0.00 0.00 83 1010.5
20260509032541 15 279 0.0 0.0 0.00 0.00 0.00 81 1010.4
20260509032038 15 300 0.0 0.0 0.00 0.00 0.00 77 1010.4
20260509031535 16 286 0.0 0.0 0.00 0.00 0.00 77 1010.4
20260509031032 16 286 0.0 0.0 0.00 0.00 0.00 71 1010.4
20260509030531 17 256 0.0 0.0 0.00 0.00 0.00 71 1010.2
20260509030027 17 294 1.6 1.6 0.00 0.00 0.00 65 1009.9
20260509025523 17 295 3.2 4.8 0.00 0.00 0.00 66 1009.7
20260509025019 17 277 0.0 0.0 0.00 0.00 0.00 75 1009.9
20260509024515 17 273 0.0 0.0 0.00 0.00 0.00 68 1009.7
20260509024012 16 289 3.2 4.8 0.00 0.00 0.00 70 1009.7
20260509023509 15 294 3.2 4.8 0.00 0.00 0.00 76 1009.5
20260509023006 16 241 0.0 0.0 0.00 0.00 0.00 80 1009.5
20260509022502 16 249 0.0 1.6 0.00 0.00 0.00 75 1009.2
20260509022000 15 284 0.0 0.0 0.00 0.00 0.00 82 1009.0
20260509021457 15 295 0.0 0.0 0.00 0.00 0.00 81 1008.9
20260509020954 16 228 0.0 1.6 0.00 0.00 0.00 79 1008.8
20260509020452 16 326 1.6 1.6 0.00 0.00 0.00 78 1008.4
20260509015949 16 302 0.0 1.6 0.00 0.00 0.00 76 1008.4
20260509015448 16 281 0.0 0.0 0.00 0.00 0.00 74 1008.3
20260509014944 17 281 0.0 0.0 0.00 0.00 0.00 74 1008.0
20260509014441 17 282 0.0 0.0 0.00 0.00 0.00 70 1007.9
20260509013937 17 281 0.0 0.0 0.00 0.00 0.00 71 1007.6
20260509013434 18 343 0.0 0.0 0.00 0.00 0.00 71 1007.5
20260509012930 19 13 1.6 1.6 0.00 0.00 0.00 62 1007.2
20260509012427 19 315 0.0 1.6 0.00 0.00 0.00 59 1007.4
20260509011924 19 309 0.0 1.6 0.00 0.00 0.00 61 1007.3
20260509011421 20 280 0.0 0.0 0.00 0.00 0.00 60 1007.2
20260509010919 19 283 0.0 0.0 0.00 0.00 0.00 61 1007.0
20260509010416 19 122 1.6 1.6 0.00 0.00 0.00 62 1006.8
20260509005913 19 209 1.6 1.6 0.00 0.00 0.00 60 1007.1
20260509005411 20 203 3.2 4.8 0.00 0.00 0.00 61 1007.3
20260509004911 19 322 4.8 6.4 0.00 0.00 0.00 61 1007.8
20260509004408 20 253 1.6 1.6 0.00 0.00 0.00 61 1007.7
20260509003905 20 339 1.6 1.6 0.00 0.00 0.00 58 1007.2
20260509003403 20 339 3.2 4.8 0.00 0.00 0.00 55 1007.6
20260509002900 20 326 4.8 6.4 0.00 0.00 0.00 57 1007.8
20260509002358 21 315 3.2 4.8 0.00 0.00 0.00 56 1007.4
20260509001855 21 204 11.3 16.1 0.00 0.00 0.00 52 1007.1
20260509001351 21 322 0.0 4.8 0.00 0.00 0.00 51 1006.5
20260509000848 20 255 16.1 24.1 0.00 0.00 0.00 48 1006.3
20260509000348 20 305 1.6 4.8 0.00 0.00 0.00 55 1006.2
20260508235842 20 114 4.8 6.4 0.00 0.00 0.00 57 1006.3
20260508235339 20 227 8.0 12.9 0.00 0.00 0.00 63 1007.2
20260508234836 20 206 8.0 12.9 0.00 0.00 0.00 61 1007.1
20260508234332 20 194 12.9 12.9 0.00 0.00 0.00 62 1006.8
20260508233831 20 271 1.6 1.6 0.00 0.00 0.00 65 1007.5
20260508233330 20 181 8.0 11.3 0.00 0.00 0.00 62 1007.4
20260508232826 20 227 6.4 8.0 0.00 0.00 0.00 64 1008.0
20260508232323 20 241 0.0 1.6 0.00 0.00 0.00 70 1008.1
20260508231821 20 23 3.2 4.8 0.00 0.00 0.00 66 1008.0
20260508231317 20 156 1.6 1.6 0.00 0.00 0.00 66 1008.3
20260508230814 21 291 1.6 1.6 0.00 0.00 0.00 63 1008.3
20260508230310 21 261 0.0 0.0 0.00 0.00 0.00 58 1008.2
20260508225808 22 139 6.4 6.4 0.00 0.00 0.00 56 1007.9
20260508225306 22 209 0.0 0.0 0.00 0.00 0.00 56 1008.1
20260508224803 22 281 1.6 1.6 0.00 0.00 0.00 55 1008.2
20260508224300 22 309 1.6 1.6 0.00 0.00 0.00 54 1008.5
20260508223757 22 273 0.0 1.6 0.00 0.00 0.00 53 1008.7
20260508223255 23 284 3.2 4.8 0.00 0.00 0.00 51 1008.9
20260508222752 23 285 3.2 4.8 0.00 0.00 0.00 52 1008.8
20260508222249 23 75 1.6 1.6 0.00 0.00 0.00 51 1009.0
20260508221745 23 269 3.2 4.8 0.00 0.00 0.00 49 1008.8
20260508221241 23 277 3.2 4.8 0.00 0.00 0.00 50 1008.7
20260508220737 23 216 3.2 4.8 0.00 0.00 0.00 52 1008.7
20260508220234 25 12 3.2 8.0 0.00 0.00 0.00 48 1008.4
20260508215730 25 274 3.2 4.8 0.00 0.00 0.00 46 1008.2
20260508215227 25 260 1.6 1.6 0.00 0.00 0.00 43 1008.2
20260508214724 25 255 6.4 8.0 0.00 0.00 0.00 43 1008.2
20260508214222 25 207 12.9 16.1 0.00 0.00 0.00 43 1008.0
20260508213718 25 210 3.2 4.8 0.00 0.00 0.00 45 1008.1
20260508213215 26 275 0.0 1.6 0.00 0.00 0.00 45 1008.1
20260508212711 27 290 0.0 1.6 0.00 0.00 0.00 41 1008.2
20260508212208 26 278 3.2 4.8 0.00 0.00 0.00 43 1008.2
20260508211703 26 189 8.0 11.3 0.00 0.00 0.00 42 1008.2
20260508211159 27 305 1.6 1.6 0.00 0.00 0.00 44 1008.3
20260508210657 26 285 3.2 6.4 0.00 0.00 0.00 43 1008.4
20260508210154 26 272 0.0 1.6 0.00 0.00 0.00 47 1008.5
20260508205651 26 324 3.2 4.8 0.00 0.00 0.00 41 1008.7
20260508205147 26 238 0.0 0.0 0.00 0.00 0.00 46 1008.5
20260508204643 25 261 3.2 4.8 0.00 0.00 0.00 45 1008.5
20260508204139 25 243 11.3 12.9 0.00 0.00 0.00 43 1008.5
20260508203636 25 211 14.5 19.3 0.00 0.00 0.00 41 1008.5
20260508203132 25 188 12.9 16.1 0.00 0.00 0.00 42 1008.6
20260508202628 25 219 6.4 8.0 0.00 0.00 0.00 43 1008.8
20260508202125 24 209 6.4 6.4 0.00 0.00 0.00 41 1008.8
20260508201622 25 65 8.0 11.3 0.00 0.00 0.00 43 1008.9
20260508201119 24 220 12.9 17.7 0.00 0.00 0.00 43 1009.2
20260508200616 25 233 14.5 17.7 0.00 0.00 0.00 42 1009.2
20260508200112 25 245 9.7 16.1 0.00 0.00 0.00 43 1009.3
20260508195609 25 254 9.7 12.9 0.00 0.00 0.00 42 1009.2
20260508195105 25 138 6.4 8.0 0.00 0.00 0.00 44 1009.2
20260508194602 24 185 6.4 12.9 0.00 0.00 0.00 46 1009.3
20260508194059 25 198 19.3 24.1 0.00 0.00 0.00 41 1009.2
20260508193555 25 242 3.2 4.8 0.00 0.00 0.00 45 1009.4
20260508193052 25 202 8.0 8.0 0.00 0.00 0.00 47 1009.5
20260508192549 25 89 6.4 8.0 0.00 0.00 0.00 45 1009.6
20260508192046 24 202 9.7 11.3 0.00 0.00 0.00 43 1009.7
20260508191543 23 251 9.7 11.3 0.00 0.00 0.00 45 1009.9
20260508191039 23 190 4.8 6.4 0.00 0.00 0.00 45 1010.1
20260508190537 23 206 3.2 4.8 0.00 0.00 0.00 48 1010.1
20260508190033 23 183 4.8 6.4 0.00 0.00 0.00 47 1010.2
20260508185530 23 216 6.4 11.3 0.00 0.00 0.00 49 1010.2
20260508185028 23 232 3.2 4.8 0.00 0.00 0.00 54 1010.4
20260508184525 23 184 8.0 12.9 0.00 0.00 0.00 51 1010.3
20260508184022 22 206 12.9 16.1 0.00 0.00 0.00 49 1010.0
20260508183518 23 190 16.1 22.5 0.00 0.00 0.00 48 1010.2
20260508183014 22 66 1.6 1.6 0.00 0.00 0.00 52 1010.2
20260508182511 22 200 11.3 12.9 0.00 0.00 0.00 48 1010.4
20260508182007 22 198 9.7 12.9 0.00 0.00 0.00 48 1010.4
20260508181503 22 191 9.7 12.9 0.00 0.00 0.00 50 1010.4
20260508181001 22 244 9.7 12.9 0.00 0.00 0.00 48 1010.4
20260508180457 22 200 17.7 17.7 0.00 0.00 0.00 48 1010.6
20260508175953 23 205 14.5 22.5 0.00 0.00 0.00 46 1010.7
20260508175449 23 168 20.9 25.7 0.00 0.00 0.00 47 1010.6
20260508174948 23 87 6.4 6.4 0.00 0.00 0.00 51 1010.8
20260508174445 22 251 9.7 16.1 0.00 0.00 0.00 51 1010.9
20260508173942 22 272 8.0 12.9 0.00 0.00 0.00 54 1011.1
20260508173439 22 199 8.0 8.0 0.00 0.00 0.00 51 1011.2
20260508172934 22 324 4.8 6.4 0.00 0.00 0.00 54 1011.3
20260508172432 22 188 9.7 16.1 0.00 0.00 0.00 50 1011.3
20260508171928 22 200 8.0 8.0 0.00 0.00 0.00 52 1011.3
20260508171425 21 152 6.4 6.4 0.00 0.00 0.00 54 1011.6
20260508170921 22 140 25.7 29.0 0.00 0.00 0.00 51 1011.7
20260508170419 21 266 6.4 11.3 0.00 0.00 0.00 53 1011.8
20260508165915 21 236 8.0 11.3 0.00 0.00 0.00 56 1011.9
20260508165414 21 237 11.3 12.9 0.00 0.00 0.00 56 1012.1
20260508164909 21 134 11.3 19.3 0.00 0.00 0.00 56 1012.4
20260508164406 22 270 8.0 11.3 0.00 0.00 0.00 57 1012.4
20260508163903 21 37 1.6 1.6 0.00 0.00 0.00 59 1012.4
20260508163401 21 182 14.5 19.3 0.00 0.00 0.00 56 1012.6
20260508162856 21 210 11.3 12.9 0.00 0.00 0.00 59 1012.7
20260508162354 21 238 12.9 17.7 0.00 0.00 0.00 56 1012.7
20260508161851 20 324 1.6 1.6 0.00 0.00 0.00 62 1012.8
20260508161348 20 225 12.9 19.3 0.00 0.00 0.00 61 1012.8
20260508160845 20 195 9.7 12.9 0.00 0.00 0.00 60 1012.8
20260508160344 20 239 12.9 17.7 0.00 0.00 0.00 61 1013.1
20260508155840 21 115 8.0 11.3 0.00 0.00 0.00 61 1013.2
20260508155337 20 295 4.8 6.4 0.00 0.00 0.00 62 1013.3
20260508154834 20 204 12.9 16.1 0.00 0.00 0.00 62 1013.3
20260508154332 20 228 4.8 6.4 0.00 0.00 0.00 63 1013.4
20260508153828 20 151 6.4 11.3 0.00 0.00 0.00 63 1013.6
20260508153326 20 240 3.2 8.0 0.00 0.00 0.00 64 1013.7
20260508152821 19 236 12.9 19.3 0.00 0.00 0.00 65 1013.4
20260508152318 18 208 8.0 11.3 0.00 0.00 0.00 67 1013.5